Location: Gisborne
(38.6530°S, 178.0040°E)
Time: 16:57:16
(UTC+13:00)

Cosmos 2360 Rocket - Pass Details

Date: 24 January 2019
Orbit: 834 x 845 km, 71.0° (Epoch: 19 February)

Event Time Altitude Azimuth Distance (km) Brightness Sun altitude
Exits shadow 21:02:03 - 35° (NE) 2,921 4.4 -6.4°
Reaches altitude 10° 21:03:55 10° 49° (NE) 2,473 4.0 -6.7°
Maximum altitude 21:07:00 15° 82° (E) 2,146 3.8 -7.2°
Drops below altitude 10° 21:10:04 10° 115° (ESE) 2,489 4.3 -7.7°
Sets 21:13:37 0° 137° (SE) 3,433 5.3 -8.3°
